Location: Ariel
(45.9570°N, 122.5700°W)
Time: 03:31:11
(UTC-07:00)

Tiros 1 - Pass Details

Date: 28 July 2019
Orbit: 630 x 664 km, 48.4° (Epoch: 21 August)

Event Time Altitude Azimuth Distance (km) Brightness Sun altitude
Rises 09:57:00 0° 211° (SSW) 2,957 10.4 41.0°
Reaches altitude 10° 09:59:34 10° 200° (SSW) 2,055 9.8 41.4°
Maximum altitude 10:03:37 28° 142° (SE) 1,226 9.8 42.1°
Drops below altitude 10° 10:07:42 10° 83° (E) 2,078 10.7 42.8°
Sets 10:10:18 0° 72° (ENE) 2,996 11.1 43.2°
